Weather History for London, United Kingdom

Change the Weather History Date:

Thursday, July 11, 2013

  Actual Average Record
Temperature  
Mean Temperature 64 °F -  
Max Temperature 74 °F 71 °F 82 °F (2005)
Min Temperature 53 °F 55 °F 50 °F (2000)
Degree Days  
Heating Degree Days 2    
Growing Degree Days 14 (Base 50)    
Moisture  
Dew Point 47 °F    
Average Humidity 58    
Maximum Humidity 82    
Minimum Humidity 28    
Precipitation  
Precipitation 0.00 in - - ()
Sea Level Pressure  
Sea Level Pressure 30.28 in    
Wind  
Wind Speed 7 mph ()    
Max Wind Speed 10 mph    
Max Gust Speed -    
Visibility 10.5 miles    
Events      
Averages and records for this station are not official NWS values.
T = Trace of Precipitation, MM = Missing Value Source: Averaged Metar Reports

Daily Weather History Graph

Daily Weather History Graph

Search for Another Location

Airport:

Trip Planner

Search our weather history database for the weather conditions in past years. The results will help you decide how hot, cold, wet, or windy it might be!

Date:

Astronomy

Jul. 11, 2013 Rise Set
Actual Time 4:57 AM BST 9:16 PM BST
Civil Twilight 4:12 AM BST 10:01 PM BST
Nautical Twilight 3:05 AM BST 11:07 PM BST
Astronomical Twilight 1:39 AM BST 12:35 AM BST
Moon 8:30 AM BST (7/11) 10:16 PM BST (7/11)
Length of Visible Light 17h 48m
Length of Day
16h 18m
Waxing Crescent, 9% of the Moon is Illuminated
Jul 11
Waxing Crescent
Jul 16
First Quarter
Jul 22
Full
Jul 29
Last Quarter
Aug 6
New

Hourly Weather History & Observations

Time (BST) Temp. Dew Point Humidity Pressure Visibility Wind Dir Wind Speed Gust Speed Precip Events Conditions
12:20 AM 53.6 °F 48.2 °F 82% 30.30 in - NE 8.1 mph - N/A   Clear
12:50 AM 54 °F 46 °F 67% 30.32 in 17 mi NE 8.1 mph - -  
12:50 AM 53.6 °F 48.2 °F 82% 30.30 in - NE 6.9 mph - N/A   Clear
1:20 AM 53.6 °F 48.2 °F 82% 30.30 in 6.2 mi NE 6.9 mph - N/A   Partly Cloudy
1:50 AM 56 °F 51 °F 77% 30.29 in 15 mi East 4.6 mph - -   Partly Cloudy
1:50 AM 53.6 °F 46.4 °F 77% 30.30 in 6.2 mi NE 9.2 mph - N/A   Mostly Cloudy
2:20 AM 53.6 °F 46.4 °F 77% 30.30 in 6.2 mi NE 9.2 mph - N/A   Overcast
2:50 AM 57 °F 50 °F 70% 30.28 in 16 mi ENE 4.6 mph - -   Mostly Cloudy
2:50 AM 53.6 °F 46.4 °F 77% 30.30 in 6.2 mi NE 8.1 mph - N/A   Overcast
3:20 AM 53.6 °F 44.6 °F 72% 30.30 in 6.2 mi NNE 8.1 mph - N/A   Mostly Cloudy
3:50 AM 54 °F 44 °F 59% 30.31 in 19 mi NNE 8.1 mph - -   Overcast
3:50 AM 53.6 °F 44.6 °F 72% 30.30 in 6.2 mi NNE 8.1 mph - N/A   Overcast
4:20 AM 53.6 °F 44.6 °F 72% 30.30 in 6.2 mi NNE 6.9 mph - N/A   Mostly Cloudy
4:50 AM 54 °F 44 °F 59% 30.30 in 19 mi NNE 9.2 mph - -   Overcast
4:50 AM 53.6 °F 44.6 °F 72% 30.30 in 6.2 mi ENE 5.8 mph - N/A   Mostly Cloudy
5:20 AM 53.6 °F 44.6 °F 72% 30.30 in 6.2 mi NNE 9.2 mph - N/A   Mostly Cloudy
5:50 AM 54 °F 48 °F 74% 30.28 in 14 mi NE 4.6 mph - -  
5:50 AM 53.6 °F 44.6 °F 72% 30.30 in 6.2 mi NNE 6.9 mph - N/A   Mostly Cloudy
6:20 AM 53.6 °F 44.6 °F 72% 30.30 in 6.2 mi NNE 8.1 mph - N/A   Overcast
6:50 AM 55 °F 48 °F 70% 30.30 in 15 mi NE 6.9 mph - -  
6:50 AM 53.6 °F 44.6 °F 72% 30.30 in 6.2 mi NE 8.1 mph - N/A   Mostly Cloudy
7:20 AM 53.6 °F 44.6 °F 72% 30.30 in 6.2 mi ENE 10.4 mph - N/A   Scattered Clouds
7:50 AM 56 °F 49 °F 69% 30.31 in 15 mi ENE 5.8 mph - -   Mostly Cloudy
7:50 AM 55.4 °F 46.4 °F 72% 30.30 in 6.2 mi NNE 8.1 mph - N/A   Scattered Clouds
8:20 AM 55.4 °F 44.6 °F 67% 30.30 in 6.2 mi ENE 8.1 mph - N/A   Scattered Clouds
8:50 AM 56 °F 43 °F 52% 30.32 in 22 mi NE 6.9 mph - -   Mostly Cloudy
8:50 AM 57.2 °F 46.4 °F 67% 30.30 in 6.2 mi NE 8.1 mph - N/A   Scattered Clouds
9:20 AM 59.0 °F 46.4 °F 63% 30.30 in 6.2 mi East 8.1 mph - N/A   Scattered Clouds
9:50 AM 60 °F 45 °F 46% 30.32 in 22 mi NE 8.1 mph - -   Partly Cloudy
9:50 AM 59.0 °F 46.4 °F 63% 30.30 in 6.2 mi NE 9.2 mph - N/A   Partly Cloudy
10:20 AM 60.8 °F 46.4 °F 59% 30.30 in 6.2 mi East 9.2 mph - N/A   Partly Cloudy
10:50 AM 63 °F 46 °F 42% 30.31 in 19 mi NE 6.9 mph - -  
10:50 AM 60.8 °F 46.4 °F 59% 30.30 in 6.2 mi NE 8.1 mph - N/A   Partly Cloudy
11:20 AM 62.6 °F 46.4 °F 55% 30.30 in - NE 9.2 mph - N/A   Clear
11:50 AM 64 °F 45 °F 39% 30.30 in 17 mi ENE 9.2 mph - -  
11:50 AM 64.4 °F 46.4 °F 52% 30.30 in - NE 9.2 mph - N/A   Clear
12:20 PM 66.2 °F 46.4 °F 49% 30.27 in - NE 8.1 mph - N/A   Clear
12:50 PM 66 °F 46 °F 36% 30.29 in 19 mi NE 8.1 mph - -  
12:50 PM 68.0 °F 46.4 °F 46% 30.27 in - Variable 6.9 mph - N/A   Clear
1:20 PM 68.0 °F 46.4 °F 46% 30.27 in - NE 8.1 mph - N/A   Clear
1:50 PM 69 °F 46 °F 33% 30.28 in 25 mi NNE 8.1 mph - -  
1:50 PM 69.8 °F 46.4 °F 43% 30.27 in - ENE 8.1 mph - N/A   Clear
2:20 PM 69.8 °F 46.4 °F 43% 30.27 in - NNE 8.1 mph - N/A   Clear
2:50 PM 71 °F 46 °F 30% 30.27 in 22 mi NNE 6.9 mph - -  
2:50 PM 71.6 °F 46.4 °F 41% 30.27 in - Variable 6.9 mph - N/A   Clear
3:20 PM 71.6 °F 48.2 °F 43% 30.27 in - NE 8.1 mph - N/A   Clear
3:50 PM 73 °F 47 °F 28% 30.26 in 22 mi NE 8.1 mph - -  
3:50 PM 73.4 °F 46.4 °F 38% 30.24 in - NE 8.1 mph - N/A   Clear
4:20 PM 73.4 °F 46.4 °F 38% 30.24 in - NNE 8.1 mph - N/A   Clear
4:50 PM 73.4 °F 46.4 °F 38% 30.24 in - ENE 9.2 mph - N/A   Clear
5:20 PM 73.4 °F 48.2 °F 41% 30.24 in - NNE 8.1 mph - N/A   Clear
5:50 PM 73.4 °F 46.4 °F 38% 30.24 in - NE 9.2 mph - N/A   Clear
6:20 PM 71.6 °F 46.4 °F 41% 30.24 in - NNE 8.1 mph - N/A   Clear
6:50 PM 72 °F 47 °F 30% 30.23 in 34 mi NNE 8.1 mph - -  
6:50 PM 71.6 °F 48.2 °F 43% 30.24 in - NNE 8.1 mph - N/A   Clear
7:20 PM 71.6 °F 46.4 °F 41% 30.24 in - NNE 9.2 mph - N/A   Clear
7:50 PM 71 °F 47 °F 31% 30.24 in 19 mi NNE 10.4 mph - -  
7:50 PM 69.8 °F 46.4 °F 43% 30.24 in - NNE 8.1 mph - N/A   Clear
8:20 PM 69.8 °F 48.2 °F 46% 30.24 in - NE 8.1 mph - N/A   Clear
8:50 PM 68.0 °F 50.0 °F 52% 30.24 in - East 9.2 mph - N/A   Clear
9:20 PM 64.4 °F 51.8 °F 64% 30.24 in - East 8.1 mph - N/A   Clear
9:50 PM 61 °F 51 °F 61% 30.27 in 17 mi East 9.2 mph - -  
9:50 PM 60.8 °F 51.8 °F 72% 30.27 in - East 9.2 mph - N/A   Clear
10:20 PM 59.0 °F 51.8 °F 77% 30.27 in - East 9.2 mph - N/A   Clear
10:50 PM 59.0 °F 51.8 °F 77% 30.27 in - East 9.2 mph - N/A   Clear
11:20 PM 57.2 °F 51.8 °F 82% 30.27 in - East 8.1 mph - N/A   Clear
11:50 PM 57.2 °F 51.8 °F 82% 30.27 in - East 5.8 mph - N/A   Clear